Regional Weather Roundup
Issued by NWS

Home | Current Version | Previous Version | Text Only | Print | Product List | Glossary On
Versions: 1 2 3 4 5 6 7 8 9 10 11 12 13 14 15 16 17 18 19 20 21 22 23 24 25 26 27 28 29 30 31 32 33 34 35 36 37 38 39 40 41 42 43 44 45 46 47 48 49 50
000
ASUS46 KPQR 290710
RWROR

OREGON REGIONAL WEATHER ROUNDUP
NATIONAL WEATHER SERVICE PORTLAND OR
1200 AM PDT FRI JUL 29 2016

NOTE: "FAIR" INDICATES FEW OR NO CLOUDS BELOW 12,000 FEET WITH
NO SIGNIFICANT WEATHER AND/OR OBSTRUCTIONS TO VISIBILITY.

ORZ001>013-290800-
NORTHWEST OREGON


CITY           SKY/WX    TMP DP  RH WIND       PRES   REMARKS
ASTORIA        CLOUDY    61  57  87 W6        30.05F
NEWPORT        MOCLDY    54  54 100 N7        30.06S FOG
PORTLAND       CLEAR     75  59  57 N6        29.96S
VANCOUVER WA   CLEAR     75  59  57 VRB6      29.95S
SCAPPOOSE      CLEAR     74  57  55 NW5       29.95S
HILLSBORO      CLEAR     72  32  23 NW7       29.96S
AURORA         CLEAR     73  58  59 CALM      29.97S
MCMINNVILLE    CLEAR     68  58  70 W5        29.97S
SALEM          CLEAR     74  59  59 N3        29.96S
CORVALLIS        N/A     66  57  72 NW13      29.97F
EUGENE         CLEAR     69  59  70 CALM      29.97S
$$

ORZ021-028-290800-
SOUTHWEST OREGON


CITY           SKY/WX    TMP DP  RH WIND       PRES   REMARKS
NORTH BEND     CLOUDY    57  55  94 N10       30.02F
BROOKINGS      CLEAR     58  54  86 NW5       29.89F
ROSEBURG       CLEAR     76  58  53 CALM      29.95S
SEXTON SUMMIT  CLEAR     68  48  48 N13       30.10S
MEDFORD        CLEAR     81  53  37 N3        29.94R
$$

ORZ014>016-041-290800-
COLUMBIA GORGE


CITY           SKY/WX    TMP DP  RH WIND       PRES   REMARKS
TROUTDALE      CLEAR     74  61  63 W3        29.95S
THE DALLES     CLEAR     83  58  42 NW15G22   29.88R
$$

ORZ029>031-041-044-049-050-061>064-502-503-505>511-290800-
EASTERN OREGON


CITY           SKY/WX    TMP DP  RH WIND       PRES   REMARKS
REDMOND        CLEAR     76  46  34 NW8       30.06R
BEND           CLEAR     73  43  33 W7        30.08S
PRINEVILLE     CLEAR     66  43  42 NW6       30.07R
KLAMATH FALLS  CLEAR     74  56  53 N6        30.09S
LAKEVIEW       CLEAR    N/A N/A N/A N14       30.15R
HERMISTON      CLEAR     73  55  53 S7        29.87S
PENDLETON      CLEAR     73  46  38 SE6       29.94S
JOHN DAY       CLEAR     76  44  31 NW3       30.09S
MEACHAM        CLEAR     58  49  72 CALM      30.11S
LA GRANDE      CLEAR     70  45  40 NW5       30.02S
BAKER CITY     CLEAR     63  48  58 S8        30.07R
BURNS          CLEAR     68  36  30 W8        30.10S
ROME             N/A     72  36  26 NE6       30.05R
ONTARIO        CLEAR     80  46  30 NW6       29.94S
$$



USA.gov is the U.S. government's official web portal to all federal, state and local government web resources and services.